THY877 VGHS-LTFM

Flight info

Callsign THY877
Flight time 7h 41m
Altitude 34000
Route IDLOX1C IDLOX G463 MONDA A201 LKN R594 JAL M890 SULOM L509 INDEK/N0490F360 L509 TAPIS M875 AMDAR/K0902F360 M875 INDUD Q169 BUPOR T388 POGON/N0488F360 A477 BABUM A909 RODAR N644 ADEKI/N0485F380 N644 LAGAS DCT SARPI UM10 HAKAN UN644 GUMRU UT315 NUGBA
Aircraft B77W/H-SDE1E2E3FGHIJ2J3J4J5M1RWXY/LB1D1

Departure

Time 2026-05-04 11:55
Airport Hazrat Shahjalal International Airport (VGHS)

Arrival

Time 2026-05-04 19:37
Airport İstanbul Airport (LTFM)
Time Latitude Longitude Altitude Speed Heading
2026-05-04 11:08 23.84432 90.40655 51 ft 0 kts 53°
2026-05-04 11:41 23.84426 90.40645 51 ft 2 kts 53°
2026-05-04 11:41 23.84417 90.40632 51 ft 2 kts 60°
2026-05-04 11:41 23.84412 90.40617 51 ft 2 kts 79°
2026-05-04 11:42 23.84410 90.40602 51 ft 2 kts 93°
2026-05-04 11:42 23.84413 90.40586 51 ft 2 kts 108°
2026-05-04 11:42 23.84419 90.40572 51 ft 2 kts 123°
2026-05-04 11:42 23.84428 90.40559 51 ft 2 kts 139°
2026-05-04 11:43 23.84434 90.40554 51 ft 1 kts 145°
2026-05-04 11:43 23.84435 90.40553 51 ft 0 kts 145°
2026-05-04 11:46 23.84433 90.40555 51 ft 1 kts 145°
2026-05-04 11:46 23.84407 90.40575 51 ft 7 kts 144°
2026-05-04 11:46 23.84357 90.40608 50 ft 5 kts 182°
2026-05-04 11:46 23.84320 90.40580 49 ft 6 kts 230°
2026-05-04 11:47 23.84292 90.40541 49 ft 6 kts 232°
2026-05-04 11:47 23.84277 90.40502 48 ft 4 kts 280°
2026-05-04 11:47 23.84288 90.40485 48 ft 2 kts 320°
2026-05-04 11:47 23.84304 90.40472 48 ft 4 kts 322°
2026-05-04 11:48 23.84368 90.40421 49 ft 18 kts 324°
2026-05-04 11:48 23.84507 90.40311 49 ft 30 kts 324°
2026-05-04 11:48 23.84681 90.40174 50 ft 29 kts 323°
2026-05-04 11:48 23.84837 90.40048 50 ft 26 kts 323°
2026-05-04 11:49 23.84980 90.39934 48 ft 24 kts 325°
2026-05-04 11:49 23.85114 90.39833 48 ft 22 kts 323°
2026-05-04 11:49 23.85231 90.39736 48 ft 20 kts 322°
2026-05-04 11:49 23.85344 90.39644 46 ft 19 kts 324°
2026-05-04 11:50 23.85449 90.39562 46 ft 18 kts 324°
2026-05-04 11:50 23.85549 90.39484 46 ft 17 kts 324°
2026-05-04 11:50 23.85642 90.39410 46 ft 15 kts 324°
2026-05-04 11:50 23.85723 90.39346 46 ft 13 kts 323°
2026-05-04 11:51 23.85761 90.39270 46 ft 11 kts 252°
2026-05-04 11:51 23.85725 90.39201 46 ft 9 kts 235°
2026-05-04 11:51 23.85690 90.39146 46 ft 8 kts 235°
2026-05-04 11:51 23.85677 90.39126 46 ft 2 kts 232°
2026-05-04 11:52 23.85645 90.39081 46 ft 10 kts 232°
2026-05-04 11:52 23.85600 90.39022 46 ft 9 kts 230°
2026-05-04 11:52 23.85558 90.38964 46 ft 9 kts 232°
2026-05-04 11:52 23.85517 90.38909 46 ft 8 kts 229°
2026-05-04 11:53 23.85473 90.38889 47 ft 6 kts 164°
2026-05-04 11:53 23.85440 90.38905 47 ft 3 kts 153°
2026-05-04 11:53 23.85437 90.38907 47 ft 0 kts 146°
2026-05-04 11:53 23.85368 90.38958 49 ft 39 kts 144°
2026-05-04 11:55 23.78414 90.43452 2820 ft 220 kts 174°
2026-05-04 11:55 23.76841 90.43195 3054 ft 240 kts 200°
2026-05-04 11:56 23.75446 90.42107 3365 ft 258 kts 229°
2026-05-04 11:56 23.74482 90.40428 3907 ft 265 kts 238°
2026-05-04 11:56 23.73485 90.38711 4626 ft 268 kts 235°
2026-05-04 11:56 23.72423 90.37067 5351 ft 270 kts 234°
2026-05-04 11:57 23.71317 90.35410 5849 ft 273 kts 234°
2026-05-04 11:57 23.70185 90.33720 5939 ft 274 kts 234°
2026-05-04 11:57 23.69080 90.32034 5952 ft 274 kts 234°
2026-05-04 11:57 23.67975 90.30347 5955 ft 274 kts 234°
2026-05-04 11:58 23.66860 90.28650 5951 ft 274 kts 234°
2026-05-04 11:58 23.65752 90.26966 5954 ft 274 kts 234°
2026-05-04 11:58 23.64633 90.25266 5950 ft 275 kts 234°
2026-05-04 11:58 23.63657 90.23508 5929 ft 273 kts 251°
2026-05-04 11:59 23.63424 90.21461 5930 ft 275 kts 277°
2026-05-04 11:59 23.64045 90.19519 5942 ft 274 kts 300°
2026-05-04 11:59 23.65133 90.17793 5945 ft 276 kts 306°
2026-05-04 11:59 23.66344 90.16148 5942 ft 276 kts 308°
2026-05-04 12:00 23.67561 90.14548 5940 ft 276 kts 308°
2026-05-04 12:00 23.68788 90.12940 5940 ft 276 kts 308°
2026-05-04 12:00 23.70028 90.11315 5941 ft 276 kts 308°
2026-05-04 12:00 23.71255 90.09706 5940 ft 276 kts 308°
2026-05-04 12:01 23.72479 90.08101 5938 ft 276 kts 308°
2026-05-04 12:01 23.73715 90.06480 5937 ft 277 kts 308°
2026-05-04 12:02 23.81141 89.96725 7928 ft 281 kts 309°
2026-05-04 12:03 23.82391 89.95082 7938 ft 281 kts 309°
2026-05-04 12:03 23.83655 89.93419 7945 ft 281 kts 309°
2026-05-04 12:03 23.84898 89.91783 7946 ft 280 kts 309°
2026-05-04 12:03 23.86144 89.90144 7944 ft 280 kts 308°
2026-05-04 12:04 23.87380 89.88515 7942 ft 281 kts 308°
2026-05-04 12:04 23.88631 89.86868 7948 ft 280 kts 309°
2026-05-04 12:04 23.89869 89.85237 7945 ft 280 kts 309°
2026-05-04 12:04 23.91117 89.83591 7945 ft 281 kts 309°
2026-05-04 12:05 23.92366 89.81945 7940 ft 281 kts 309°
2026-05-04 12:05 23.93603 89.80312 7942 ft 280 kts 308°
2026-05-04 12:05 23.94858 89.78654 7970 ft 284 kts 308°
2026-05-04 12:05 23.96120 89.76985 8495 ft 287 kts 309°
2026-05-04 12:06 23.97364 89.75342 9334 ft 283 kts 309°
2026-05-04 12:06 23.98632 89.73665 10045 ft 287 kts 309°
2026-05-04 12:06 23.99892 89.71999 10824 ft 289 kts 309°
2026-05-04 12:06 24.01193 89.70277 11267 ft 304 kts 309°
2026-05-04 12:07 24.02589 89.68429 11677 ft 321 kts 309°
2026-05-04 12:07 24.04028 89.66524 12138 ft 335 kts 309°
2026-05-04 12:07 24.05545 89.64513 12602 ft 350 kts 309°
2026-05-04 12:07 24.07126 89.62418 13027 ft 365 kts 309°
2026-05-04 12:08 24.08771 89.60238 13480 ft 379 kts 309°
2026-05-04 12:08 24.10479 89.57958 13901 ft 392 kts 307°
2026-05-04 12:08 24.11967 89.55409 14479 ft 401 kts 297°
2026-05-04 12:08 24.13053 89.52639 15214 ft 404 kts 291°
2026-05-04 12:09 24.14048 89.49751 16051 ft 405 kts 290°
2026-05-04 12:09 24.15032 89.46873 16786 ft 408 kts 290°
2026-05-04 12:09 24.16025 89.43966 17440 ft 413 kts 290°
2026-05-04 12:09 24.17031 89.41019 18104 ft 416 kts 290°
2026-05-04 12:10 24.18041 89.38057 18821 ft 418 kts 290°
2026-05-04 12:10 24.19052 89.35093 19487 ft 420 kts 290°
2026-05-04 12:10 24.20072 89.32100 20115 ft 424 kts 290°
2026-05-04 12:10 24.21102 89.29072 20738 ft 426 kts 290°
2026-05-04 12:11 24.22139 89.26024 21363 ft 429 kts 289°
2026-05-04 12:11 24.23179 89.22966 21958 ft 431 kts 290°
2026-05-04 12:11 24.24223 89.19891 22499 ft 435 kts 289°
2026-05-04 12:11 24.25275 89.16793 23045 ft 438 kts 289°
2026-05-04 12:12 24.26345 89.13637 23584 ft 441 kts 289°
2026-05-04 12:12 24.27406 89.10508 24105 ft 444 kts 289°
2026-05-04 12:12 24.28488 89.07310 24628 ft 446 kts 288°
2026-05-04 12:12 24.29560 89.04141 25129 ft 449 kts 288°
2026-05-04 12:13 24.30638 89.00954 25612 ft 452 kts 288°
2026-05-04 12:14 24.38395 88.77934 28853 ft 470 kts 286°
2026-05-04 12:15 24.39532 88.74548 29456 ft 468 kts 286°
2026-05-04 12:15 24.40634 88.71271 30174 ft 464 kts 286°
2026-05-04 12:15 24.41741 88.67971 30850 ft 460 kts 286°
2026-05-04 12:15 24.42840 88.64692 31425 ft 458 kts 285°
2026-05-04 12:16 24.43936 88.61419 31897 ft 457 kts 286°
2026-05-04 12:16 24.45158 88.58199 32336 ft 460 kts 290°
2026-05-04 12:16 24.46511 88.55056 32843 ft 459 kts 291°
2026-05-04 12:16 24.47879 88.51880 33386 ft 458 kts 290°
2026-05-04 12:17 24.49220 88.48744 33757 ft 459 kts 290°
2026-05-04 12:17 24.50567 88.45579 33771 ft 459 kts 290°
2026-05-04 12:17 24.53228 88.39291 33762 ft 454 kts 290°
2026-05-04 12:18 24.55890 88.32964 33771 ft 457 kts 289°
2026-05-04 12:18 24.58541 88.26647 33768 ft 453 kts 290°
2026-05-04 12:19 24.61174 88.20354 33769 ft 455 kts 289°
2026-05-04 12:19 24.63806 88.14051 33761 ft 455 kts 289°
2026-05-04 12:20 24.66422 88.07777 33761 ft 455 kts 289°
2026-05-04 12:20 24.69056 88.01447 33759 ft 455 kts 289°
2026-05-04 12:21 24.71658 87.95127 33756 ft 454 kts 289°
2026-05-04 12:21 24.74252 87.88814 33762 ft 455 kts 289°
2026-05-04 12:22 24.76846 87.82496 33763 ft 455 kts 289°
2026-05-04 12:22 24.79478 87.76170 33764 ft 456 kts 290°
2026-05-04 12:23 24.82168 87.69873 33764 ft 454 kts 290°
2026-05-04 12:23 24.84839 87.63600 33768 ft 455 kts 290°
2026-05-04 12:24 24.87508 87.57320 33774 ft 455 kts 290°
2026-05-04 12:24 24.90194 87.50987 33777 ft 454 kts 290°
2026-05-04 12:25 24.92855 87.44701 33775 ft 455 kts 290°
2026-05-04 12:25 24.95522 87.38392 33767 ft 454 kts 290°
2026-05-04 12:26 24.98152 87.32163 33777 ft 452 kts 289°
2026-05-04 12:26 25.00802 87.25874 33771 ft 454 kts 289°
2026-05-04 12:27 25.03464 87.19549 33767 ft 453 kts 289°
2026-05-04 12:27 25.06084 87.13316 33763 ft 451 kts 289°
2026-05-04 12:28 25.08736 87.06994 33764 ft 453 kts 289°
2026-05-04 12:28 25.11358 87.00740 33754 ft 451 kts 289°
2026-05-04 12:29 25.13991 86.94447 33753 ft 451 kts 289°
2026-05-04 12:29 25.16609 86.88180 33759 ft 453 kts 289°
2026-05-04 12:30 25.19241 86.81873 33745 ft 452 kts 289°
2026-05-04 12:30 25.21867 86.75569 33735 ft 455 kts 289°
2026-05-04 12:31 25.24497 86.69249 33728 ft 452 kts 289°
2026-05-04 12:31 25.27111 86.62957 33735 ft 453 kts 289°
2026-05-04 12:32 25.31037 86.53491 33741 ft 452 kts 289°
2026-05-04 12:33 25.33664 86.47144 33739 ft 453 kts 289°
2026-05-04 12:33 25.35605 86.40665 33736 ft 445 kts 277°
2026-05-04 12:34 25.36846 86.33968 33737 ft 445 kts 277°
2026-05-04 12:34 25.38063 86.27318 33746 ft 443 kts 277°
2026-05-04 12:35 25.39282 86.20633 33745 ft 443 kts 276°
2026-05-04 12:35 25.40488 86.13991 33744 ft 444 kts 277°
2026-05-04 12:36 25.41701 86.07296 33742 ft 444 kts 277°
2026-05-04 12:36 25.42911 86.00595 33736 ft 445 kts 277°
2026-05-04 12:37 25.44115 85.93913 33738 ft 444 kts 277°
2026-05-04 12:37 25.45310 85.87260 33738 ft 443 kts 277°
2026-05-04 12:38 25.46511 85.80559 33735 ft 445 kts 277°
2026-05-04 12:38 25.47702 85.73887 33731 ft 445 kts 277°
2026-05-04 12:39 25.48896 85.67188 33731 ft 445 kts 277°
2026-05-04 12:39 25.50086 85.60490 33726 ft 444 kts 277°
2026-05-04 12:40 25.51273 85.53787 33720 ft 447 kts 277°
2026-05-04 12:40 25.52468 85.47031 33715 ft 445 kts 277°
2026-05-04 12:41 25.53653 85.40299 33722 ft 448 kts 277°
2026-05-04 12:41 25.54836 85.33566 33740 ft 447 kts 276°
2026-05-04 12:42 25.56020 85.26812 33760 ft 447 kts 276°
2026-05-04 12:42 25.57201 85.20053 33768 ft 449 kts 276°
2026-05-04 12:43 25.58372 85.13330 33771 ft 447 kts 276°
2026-05-04 12:43 25.59836 85.06644 33776 ft 449 kts 283°
2026-05-04 12:44 25.61784 85.00050 33765 ft 452 kts 283°
2026-05-04 12:44 25.63727 84.93466 33757 ft 453 kts 283°
2026-05-04 12:45 25.65673 84.86849 33738 ft 451 kts 283°
2026-05-04 12:45 25.67614 84.80222 33731 ft 455 kts 283°
2026-05-04 12:46 25.69543 84.73630 33732 ft 451 kts 283°
2026-05-04 12:46 25.71478 84.66995 33719 ft 453 kts 283°
2026-05-04 12:47 25.73398 84.60403 33712 ft 451 kts 283°
2026-05-04 12:47 25.75320 84.53788 33714 ft 450 kts 283°
2026-05-04 12:48 25.77238 84.47175 33714 ft 451 kts 283°
2026-05-04 12:48 25.79140 84.40606 33714 ft 450 kts 283°
2026-05-04 12:49 25.81040 84.34031 33716 ft 448 kts 283°
2026-05-04 12:49 25.82936 84.27453 33730 ft 450 kts 283°
2026-05-04 12:50 25.84836 84.20855 33717 ft 447 kts 283°
2026-05-04 12:50 25.86707 84.14342 33726 ft 449 kts 282°
2026-05-04 12:51 25.88594 84.07764 33719 ft 446 kts 283°
2026-05-04 12:51 25.90471 84.01206 33722 ft 447 kts 282°
2026-05-04 12:52 25.92339 83.94669 33721 ft 445 kts 283°
2026-05-04 12:52 25.94203 83.88130 33720 ft 445 kts 283°
2026-05-04 12:53 25.96072 83.81562 33731 ft 446 kts 282°
2026-05-04 12:53 25.97935 83.75005 33725 ft 447 kts 283°
2026-05-04 12:54 25.99794 83.68449 33738 ft 447 kts 283°
2026-05-04 12:54 26.01654 83.61875 33739 ft 448 kts 283°
2026-05-04 12:55 26.03510 83.55311 33747 ft 448 kts 283°
2026-05-04 12:55 26.05372 83.48731 33760 ft 446 kts 283°
2026-05-04 12:56 26.07241 83.42104 33783 ft 452 kts 283°
2026-05-04 12:56 26.09093 83.35535 33767 ft 448 kts 283°
2026-05-04 12:57 26.10967 83.28867 33783 ft 449 kts 282°
2026-05-04 12:57 26.12823 83.22257 33781 ft 449 kts 283°
2026-05-04 12:58 26.14673 83.15649 33793 ft 451 kts 283°
2026-05-04 12:58 26.16531 83.09006 33789 ft 450 kts 283°
2026-05-04 12:59 26.18391 83.02335 33785 ft 454 kts 283°
2026-05-04 12:59 26.20246 82.95676 33818 ft 452 kts 283°
2026-05-04 13:00 26.22108 82.88973 33803 ft 455 kts 283°
2026-05-04 13:00 26.23968 82.82269 33800 ft 454 kts 283°
2026-05-04 13:01 26.25826 82.75555 33790 ft 455 kts 283°
2026-05-04 13:01 26.27692 82.68797 33789 ft 458 kts 284°
2026-05-04 13:02 26.29554 82.62045 33776 ft 455 kts 283°
2026-05-04 13:02 26.31410 82.55299 33764 ft 458 kts 283°
2026-05-04 13:03 26.33263 82.48549 33766 ft 458 kts 284°
2026-05-04 13:03 26.35121 82.41770 33767 ft 457 kts 284°
2026-05-04 13:04 26.36957 82.35054 33786 ft 459 kts 283°
2026-05-04 13:04 26.38826 82.28204 33772 ft 460 kts 283°
2026-05-04 13:05 26.40678 82.21407 33780 ft 460 kts 283°
2026-05-04 13:05 26.42537 82.14566 33784 ft 459 kts 283°
2026-05-04 13:06 26.44379 82.07774 33782 ft 459 kts 282°
2026-05-04 13:06 26.46223 82.00957 33784 ft 462 kts 283°
2026-05-04 13:07 26.48085 81.94065 33778 ft 465 kts 283°
2026-05-04 13:07 26.49946 81.87159 33766 ft 465 kts 283°
2026-05-04 13:08 26.51797 81.80277 33763 ft 464 kts 283°
2026-05-04 13:08 26.53652 81.73367 33761 ft 466 kts 283°
2026-05-04 13:09 26.55501 81.66459 33759 ft 467 kts 282°
2026-05-04 13:09 26.57364 81.59487 33754 ft 471 kts 282°
2026-05-04 13:10 26.59230 81.52490 33760 ft 472 kts 283°
2026-05-04 13:10 26.61095 81.45483 33762 ft 473 kts 282°
2026-05-04 13:11 26.62961 81.38454 33767 ft 474 kts 282°
2026-05-04 13:11 26.64828 81.31408 33767 ft 475 kts 282°
2026-05-04 13:12 26.66700 81.24326 33761 ft 474 kts 282°
2026-05-04 13:12 26.68552 81.17302 33769 ft 478 kts 282°
2026-05-04 13:13 26.70431 81.10165 33769 ft 477 kts 282°
2026-05-04 13:13 26.72293 81.03076 33776 ft 480 kts 282°
2026-05-04 13:14 26.74161 80.95944 33780 ft 478 kts 282°
2026-05-04 13:14 26.76615 80.89030 33785 ft 484 kts 295°
2026-05-04 13:15 26.80713 80.82928 33789 ft 496 kts 306°
2026-05-04 13:15 26.85189 80.77149 33784 ft 494 kts 306°
2026-05-04 13:16 26.89711 80.71271 33795 ft 499 kts 306°
2026-05-04 13:16 26.94228 80.65374 33798 ft 496 kts 306°
2026-05-04 13:17 26.98682 80.59538 33805 ft 498 kts 306°
2026-05-04 13:17 27.03182 80.53625 33802 ft 497 kts 305°
2026-05-04 13:18 27.07672 80.47719 33817 ft 497 kts 305°
2026-05-04 13:18 27.12120 80.41856 33805 ft 495 kts 305°
2026-05-04 13:19 27.16610 80.35926 33805 ft 497 kts 305°
2026-05-04 13:19 27.21058 80.30046 33821 ft 497 kts 304°
2026-05-04 13:20 27.25545 80.24104 33813 ft 498 kts 304°
2026-05-04 13:20 27.29989 80.18213 33821 ft 496 kts 305°
2026-05-04 13:21 27.34434 80.12312 33821 ft 496 kts 304°
2026-05-04 13:21 27.38916 80.06353 33822 ft 498 kts 304°
2026-05-04 13:22 27.43351 80.00449 33813 ft 495 kts 304°
2026-05-04 13:22 27.47793 79.94527 33816 ft 495 kts 304°
2026-05-04 13:23 27.52232 79.88600 33813 ft 497 kts 305°
2026-05-04 13:23 27.56691 79.82641 33812 ft 494 kts 304°
2026-05-04 13:24 27.61099 79.76739 33818 ft 495 kts 305°
2026-05-04 13:24 27.65536 79.70792 33817 ft 493 kts 305°
2026-05-04 13:25 27.72362 79.62013 33817 ft 498 kts 310°
2026-05-04 13:25 27.77308 79.56580 33814 ft 500 kts 310°
2026-05-04 13:26 27.82282 79.51070 33816 ft 499 kts 310°
2026-05-04 13:26 27.87217 79.45564 33811 ft 499 kts 310°
2026-05-04 13:27 27.92100 79.40092 33808 ft 494 kts 310°
2026-05-04 13:27 27.96973 79.34610 33811 ft 498 kts 309°
2026-05-04 13:28 28.01887 79.29071 33819 ft 497 kts 309°
2026-05-04 13:28 28.06748 79.23581 33820 ft 497 kts 309°
2026-05-04 13:29 28.11637 79.18053 33808 ft 495 kts 309°
2026-05-04 13:29 28.16492 79.12551 33812 ft 498 kts 309°
2026-05-04 13:30 28.21364 79.07025 33808 ft 492 kts 309°
2026-05-04 13:30 28.26194 79.01537 33827 ft 493 kts 309°
2026-05-04 13:31 28.31039 78.96026 33829 ft 491 kts 309°
2026-05-04 13:31 28.35833 78.90565 33829 ft 490 kts 309°
2026-05-04 13:32 28.40617 78.85107 33830 ft 490 kts 309°
2026-05-04 13:32 28.45425 78.79614 33831 ft 491 kts 309°
2026-05-04 13:33 28.50718 78.74648 33823 ft 493 kts 317°
2026-05-04 13:33 28.56207 78.69900 33822 ft 498 kts 317°
2026-05-04 13:34 28.61679 78.65160 33821 ft 491 kts 317°
2026-05-04 13:34 28.67134 78.60418 33817 ft 495 kts 317°
2026-05-04 13:35 28.75268 78.53334 33817 ft 493 kts 317°
2026-05-04 13:36 28.80725 78.48573 33810 ft 492 kts 317°
2026-05-04 13:36 28.86137 78.43845 33809 ft 490 kts 317°
2026-05-04 13:37 28.91544 78.39111 33813 ft 493 kts 317°
2026-05-04 13:37 28.96974 78.34355 33820 ft 489 kts 316°
2026-05-04 13:38 29.02380 78.29611 33832 ft 489 kts 316°
2026-05-04 13:38 29.07766 78.24879 33834 ft 488 kts 316°
2026-05-04 13:39 29.13145 78.20145 33825 ft 489 kts 317°
2026-05-04 13:39 29.18511 78.15417 33823 ft 489 kts 316°
2026-05-04 13:40 29.23862 78.10696 33825 ft 487 kts 317°
2026-05-04 13:40 29.29258 78.05930 33826 ft 486 kts 317°
2026-05-04 13:41 29.34595 78.01208 33819 ft 487 kts 317°
2026-05-04 13:41 29.39945 77.96468 33822 ft 486 kts 317°
2026-05-04 13:42 29.47909 77.89401 33821 ft 484 kts 317°
2026-05-04 13:42 29.53223 77.84679 33821 ft 483 kts 317°
2026-05-04 13:43 29.58506 77.79976 33820 ft 481 kts 317°
2026-05-04 13:43 29.63810 77.75248 33824 ft 482 kts 317°
2026-05-04 13:44 29.69096 77.70531 33820 ft 479 kts 317°
2026-05-04 13:44 29.74344 77.65840 33821 ft 479 kts 317°
2026-05-04 13:45 29.79573 77.61160 33817 ft 477 kts 317°
2026-05-04 13:45 29.84784 77.56490 33818 ft 476 kts 317°
2026-05-04 13:46 29.89989 77.51820 33806 ft 473 kts 317°
2026-05-04 13:46 29.95202 77.47134 33822 ft 478 kts 318°
2026-05-04 13:47 30.00639 77.42782 33815 ft 475 kts 328°
2026-05-04 13:47 30.06549 77.39333 33820 ft 481 kts 329°
2026-05-04 13:48 30.12548 77.35860 33829 ft 481 kts 329°
2026-05-04 13:48 30.18493 77.32409 33850 ft 477 kts 329°
2026-05-04 13:49 30.24410 77.28965 33845 ft 478 kts 328°
2026-05-04 13:49 30.30340 77.25505 33876 ft 479 kts 328°
2026-05-04 13:50 30.36272 77.22002 33873 ft 476 kts 326°
2026-05-04 13:50 30.41420 77.17353 33900 ft 468 kts 309°
2026-05-04 13:51 30.45486 77.11488 33881 ft 465 kts 304°
2026-05-04 13:51 30.49387 77.05543 33892 ft 465 kts 304°
2026-05-04 13:52 30.55242 76.96593 33886 ft 464 kts 304°
2026-05-04 13:53 30.59130 76.90637 33881 ft 466 kts 304°
2026-05-04 13:53 30.63024 76.84663 33891 ft 465 kts 304°
2026-05-04 13:54 30.68513 76.75509 33869 ft 461 kts 294°
2026-05-04 13:55 30.72170 76.65198 33863 ft 461 kts 290°
2026-05-04 13:55 30.75714 76.54859 33864 ft 460 kts 291°
2026-05-04 13:56 30.78065 76.47980 33855 ft 460 kts 291°
2026-05-04 13:57 30.81592 76.37640 33830 ft 459 kts 291°
2026-05-04 13:58 30.86292 76.23810 33821 ft 460 kts 290°
2026-05-04 13:58 30.89798 76.13454 33799 ft 460 kts 291°
2026-05-04 13:59 30.92124 76.06570 33794 ft 458 kts 291°
2026-05-04 14:00 30.95615 75.96205 33786 ft 460 kts 291°
2026-05-04 14:00 30.99095 75.85844 33793 ft 459 kts 291°
2026-05-04 14:01 31.01432 75.78866 33789 ft 459 kts 291°
2026-05-04 14:02 31.04866 75.68587 33768 ft 457 kts 291°
2026-05-04 14:02 31.07164 75.61691 33778 ft 458 kts 291°
2026-05-04 14:03 31.09469 75.54761 33766 ft 456 kts 291°
2026-05-04 14:03 31.11709 75.47877 33775 ft 457 kts 288°
2026-05-04 14:04 31.14433 75.37263 33765 ft 455 kts 287°
2026-05-04 14:04 31.16230 75.30177 33775 ft 454 kts 287°
2026-05-04 14:05 31.18918 75.19548 33779 ft 456 kts 287°
2026-05-04 14:06 31.20705 75.12463 33779 ft 457 kts 287°
2026-05-04 14:06 31.22492 75.05357 33783 ft 457 kts 287°
2026-05-04 14:07 31.24268 74.98281 33783 ft 456 kts 287°
2026-05-04 14:07 31.26043 74.91188 33777 ft 454 kts 287°
2026-05-04 14:08 31.27813 74.84099 33779 ft 455 kts 287°
2026-05-04 14:08 31.29578 74.77009 33782 ft 456 kts 287°
2026-05-04 14:09 31.32222 74.66356 33790 ft 456 kts 287°
2026-05-04 14:10 31.36184 74.56355 33790 ft 455 kts 307°
2026-05-04 14:10 31.40624 74.51109 33794 ft 457 kts 321°
2026-05-04 14:11 31.45685 74.46590 33798 ft 457 kts 321°
2026-05-04 14:11 31.53294 74.39781 33791 ft 458 kts 321°
2026-05-04 14:12 31.58338 74.35242 33792 ft 459 kts 321°
2026-05-04 14:13 31.65923 74.28396 33800 ft 459 kts 321°
2026-05-04 14:13 31.70985 74.23816 33801 ft 457 kts 321°
2026-05-04 14:14 31.76007 74.19263 33802 ft 460 kts 320°
2026-05-04 14:14 31.83583 74.12382 33806 ft 459 kts 321°
2026-05-04 14:15 31.93678 74.03191 33814 ft 459 kts 320°
2026-05-04 14:16 32.01234 73.96294 33813 ft 461 kts 320°
2026-05-04 14:17 32.08846 73.89331 33816 ft 460 kts 320°
2026-05-04 14:18 32.16457 73.82352 33826 ft 466 kts 320°
2026-05-04 14:19 32.26710 73.72929 33827 ft 466 kts 320°
2026-05-04 14:19 32.31837 73.68206 33834 ft 470 kts 320°
2026-05-04 14:20 32.37026 73.63419 33833 ft 471 kts 319°
2026-05-04 14:20 32.42207 73.58633 33840 ft 473 kts 319°
2026-05-04 14:21 32.49960 73.51456 33851 ft 474 kts 319°
2026-05-04 14:21 32.55178 73.46617 33852 ft 474 kts 319°
2026-05-04 14:22 32.60361 73.41802 33854 ft 475 kts 319°
2026-05-04 14:22 32.65575 73.36953 33865 ft 475 kts 319°
2026-05-04 14:23 32.73376 73.29684 33880 ft 474 kts 318°
2026-05-04 14:24 32.77953 73.24133 33876 ft 469 kts 302°
2026-05-04 14:24 32.81571 73.17768 33887 ft 465 kts 300°
2026-05-04 14:25 32.85164 73.11324 33891 ft 466 kts 300°
2026-05-04 14:25 32.90490 73.01738 33890 ft 463 kts 300°
2026-05-04 14:26 32.93992 72.95415 33892 ft 461 kts 300°
2026-05-04 14:26 32.97541 72.88994 33900 ft 462 kts 300°
2026-05-04 14:27 33.01040 72.82653 33876 ft 462 kts 300°
2026-05-04 14:27 33.04562 72.76257 33881 ft 462 kts 300°
2026-05-04 14:28 33.08077 72.69865 33870 ft 462 kts 300°
2026-05-04 14:28 33.11599 72.63449 33867 ft 460 kts 300°
2026-05-04 14:29 33.18622 72.50619 33862 ft 461 kts 301°
2026-05-04 14:30 33.22101 72.44246 33862 ft 460 kts 300°
2026-05-04 14:31 33.27318 72.34670 33855 ft 460 kts 300°
2026-05-04 14:32 33.34252 72.21904 33846 ft 459 kts 300°
2026-05-04 14:32 33.37725 72.15492 33842 ft 458 kts 301°
2026-05-04 14:33 33.41182 72.09100 33832 ft 457 kts 301°
2026-05-04 14:33 33.44610 72.02750 33831 ft 454 kts 301°
2026-05-04 14:34 33.48036 71.96394 33830 ft 454 kts 301°
2026-05-04 14:34 33.51259 71.89903 33849 ft 455 kts 293°
2026-05-04 14:35 33.53046 71.82662 33853 ft 454 kts 278°
2026-05-04 14:35 33.53146 71.75130 33867 ft 458 kts 268°
2026-05-04 14:36 33.52728 71.67500 33867 ft 457 kts 268°
2026-05-04 14:36 33.52290 71.59927 33869 ft 457 kts 268°
2026-05-04 14:37 33.51840 71.52357 33867 ft 459 kts 268°
2026-05-04 14:37 33.51377 71.44723 33880 ft 461 kts 268°
2026-05-04 14:38 33.50907 71.37099 33920 ft 460 kts 268°
2026-05-04 14:38 33.50432 71.29478 33953 ft 461 kts 268°
2026-05-04 14:39 33.49950 71.21835 33988 ft 462 kts 268°
2026-05-04 14:39 33.49461 71.14169 33976 ft 463 kts 268°
2026-05-04 14:40 33.49685 71.06458 33971 ft 460 kts 282°
2026-05-04 14:40 33.50463 71.02782 33969 ft 457 kts 290°
2026-05-04 14:40 33.53301 70.95963 33994 ft 457 kts 305°
2026-05-04 14:41 33.57542 70.90363 34025 ft 457 kts 316°
2026-05-04 14:42 33.66811 70.80005 34104 ft 455 kts 316°
2026-05-04 14:42 33.71442 70.74787 34165 ft 456 kts 316°
2026-05-04 14:43 33.76035 70.69596 34203 ft 453 kts 316°
2026-05-04 14:43 33.80648 70.64368 34203 ft 454 kts 316°
2026-05-04 14:44 33.85229 70.59165 34216 ft 453 kts 316°
2026-05-04 14:44 33.89808 70.53956 34240 ft 454 kts 316°
2026-05-04 14:45 33.93924 70.48280 34238 ft 453 kts 304°
2026-05-04 14:45 33.96990 70.41645 34276 ft 455 kts 299°
2026-05-04 14:46 33.99941 70.34968 34298 ft 452 kts 299°
2026-05-04 14:46 34.02898 70.28264 34335 ft 454 kts 298°
2026-05-04 14:47 34.05854 70.21546 34331 ft 452 kts 299°
2026-05-04 14:47 34.08796 70.14849 34348 ft 454 kts 299°
2026-05-04 14:48 34.11746 70.08121 34342 ft 455 kts 299°
2026-05-04 14:48 34.14699 70.01371 34362 ft 453 kts 299°
2026-05-04 14:49 34.17619 69.94685 34345 ft 453 kts 298°
2026-05-04 14:49 34.20534 69.87943 34332 ft 452 kts 298°
2026-05-04 14:50 34.23426 69.81229 34322 ft 453 kts 298°
2026-05-04 14:50 34.26320 69.74497 34296 ft 451 kts 299°
2026-05-04 14:51 34.29198 69.67795 34314 ft 450 kts 298°
2026-05-04 14:51 34.32080 69.61068 34306 ft 453 kts 298°
2026-05-04 14:52 34.34967 69.54314 34321 ft 452 kts 299°
2026-05-04 14:52 34.37852 69.47556 34337 ft 450 kts 299°
2026-05-04 14:53 34.40708 69.40850 34303 ft 451 kts 299°
2026-05-04 14:53 34.43569 69.34120 34282 ft 449 kts 298°
2026-05-04 14:54 34.46433 69.27371 34277 ft 451 kts 298°
2026-05-04 14:54 34.49353 69.20648 34239 ft 448 kts 303°
2026-05-04 14:55 34.53294 69.14854 34232 ft 448 kts 317°
2026-05-04 14:55 34.58416 69.10562 34233 ft 449 kts 330°
2026-05-04 14:56 34.63928 69.07036 34266 ft 449 kts 330°
2026-05-04 14:56 34.69474 69.03475 34277 ft 449 kts 330°
2026-05-04 14:57 34.74980 68.99922 34277 ft 447 kts 330°
2026-05-04 14:57 34.80460 68.96375 34290 ft 450 kts 330°
2026-05-04 14:58 34.85978 68.92793 34322 ft 447 kts 330°
2026-05-04 14:58 34.91447 68.89237 34333 ft 448 kts 330°
2026-05-04 14:59 34.96909 68.85678 34322 ft 446 kts 330°
2026-05-04 15:00 35.05135 68.80308 34341 ft 447 kts 330°
2026-05-04 15:00 35.10624 68.76717 34343 ft 447 kts 330°
2026-05-04 15:01 35.18829 68.71340 34376 ft 446 kts 330°
2026-05-04 15:01 35.24295 68.67750 34389 ft 446 kts 330°
2026-05-04 15:02 35.29773 68.64148 34388 ft 446 kts 330°
2026-05-04 15:02 35.35239 68.60548 34371 ft 446 kts 330°
2026-05-04 15:03 35.40683 68.56956 34377 ft 444 kts 330°
2026-05-04 15:03 35.46125 68.53359 34355 ft 445 kts 330°
2026-05-04 15:04 35.51563 68.49761 34341 ft 446 kts 330°
2026-05-04 15:04 35.57040 68.46130 34330 ft 446 kts 330°
2026-05-04 15:05 35.62478 68.42515 34327 ft 445 kts 330°
2026-05-04 15:05 35.67911 68.38877 34282 ft 445 kts 330°
2026-05-04 15:06 35.73357 68.35226 34331 ft 447 kts 330°
2026-05-04 15:07 35.81500 68.29758 34331 ft 446 kts 329°
2026-05-04 15:07 35.86949 68.26091 34313 ft 447 kts 329°
2026-05-04 15:08 35.92395 68.22421 34306 ft 447 kts 330°
2026-05-04 15:08 35.97826 68.18755 34261 ft 447 kts 330°
2026-05-04 15:09 36.03302 68.15054 34243 ft 447 kts 330°
2026-05-04 15:09 36.08736 68.11375 34234 ft 447 kts 329°
2026-05-04 15:10 36.16898 68.05838 34216 ft 446 kts 329°
2026-05-04 15:11 36.25071 68.00280 34206 ft 448 kts 329°
2026-05-04 15:11 36.30518 67.96568 34186 ft 447 kts 329°
2026-05-04 15:12 36.35944 67.92864 34162 ft 446 kts 329°
2026-05-04 15:12 36.41388 67.89143 34151 ft 446 kts 329°
2026-05-04 15:13 36.46852 67.85401 34135 ft 448 kts 329°
2026-05-04 15:13 36.52286 67.81674 34122 ft 448 kts 329°
2026-05-04 15:14 36.57742 67.77926 34139 ft 449 kts 329°
2026-05-04 15:14 36.63183 67.74183 34078 ft 448 kts 329°
2026-05-04 15:15 36.68649 67.70416 34077 ft 448 kts 329°
2026-05-04 15:15 36.74136 67.66634 34023 ft 450 kts 329°
2026-05-04 15:16 36.82319 67.61008 34017 ft 449 kts 329°
2026-05-04 15:17 36.90527 67.55350 34000 ft 449 kts 329°
2026-05-04 15:17 36.98725 67.49684 33975 ft 451 kts 329°
2026-05-04 15:18 37.04210 67.45885 33970 ft 452 kts 329°
2026-05-04 15:19 37.12470 67.40152 33978 ft 452 kts 329°
2026-05-04 15:19 37.20725 67.34409 33984 ft 451 kts 329°
2026-05-04 15:20 37.26117 67.30362 33994 ft 451 kts 327°
2026-05-04 15:20 37.31448 67.26258 34000 ft 451 kts 327°
2026-05-04 15:21 37.36775 67.22163 34001 ft 452 kts 327°
2026-05-04 15:22 37.44847 67.15959 34014 ft 453 kts 327°
2026-05-04 15:22 37.52883 67.09773 34020 ft 454 kts 327°
2026-05-04 15:23 37.58254 67.05632 34030 ft 454 kts 327°
2026-05-04 15:23 37.63669 67.01450 34031 ft 455 kts 327°
2026-05-04 15:24 37.74453 66.93100 34065 ft 455 kts 327°
2026-05-04 15:25 37.79848 66.88911 34074 ft 456 kts 327°
2026-05-04 15:26 37.87944 66.82614 34108 ft 456 kts 327°
2026-05-04 15:26 37.96039 66.76300 34139 ft 456 kts 327°
2026-05-04 15:27 38.04133 66.69956 34139 ft 455 kts 327°
2026-05-04 15:28 38.12175 66.63576 34144 ft 457 kts 327°
2026-05-04 15:29 38.20280 66.57132 34117 ft 457 kts 327°
2026-05-04 15:30 38.39161 66.42058 34063 ft 458 kts 327°
2026-05-04 15:31 38.47229 66.35589 34048 ft 458 kts 327°
2026-05-04 15:32 38.60678 66.24606 34022 ft 458 kts 320°
2026-05-04 15:34 38.71370 66.09538 34004 ft 460 kts 310°
2026-05-04 15:34 38.77587 66.00186 33990 ft 460 kts 310°
2026-05-04 15:35 38.83816 65.90788 33984 ft 460 kts 310°
2026-05-04 15:36 38.90005 65.81422 33983 ft 460 kts 310°
2026-05-04 15:36 38.94130 65.75165 33969 ft 460 kts 310°
2026-05-04 15:37 38.98246 65.68907 33987 ft 462 kts 310°
2026-05-04 15:37 39.02367 65.62632 33983 ft 461 kts 310°
2026-05-04 15:38 39.06487 65.56364 33985 ft 461 kts 310°
2026-05-04 15:38 39.10675 65.50100 33985 ft 462 kts 310°
2026-05-04 15:39 39.14848 65.43847 33981 ft 462 kts 310°
2026-05-04 15:40 39.21118 65.34420 33981 ft 461 kts 310°
2026-05-04 15:40 39.25288 65.28133 33983 ft 462 kts 310°
2026-05-04 15:41 39.29455 65.21836 33981 ft 462 kts 310°
2026-05-04 15:41 39.33608 65.15550 33983 ft 462 kts 310°
2026-05-04 15:42 39.37777 65.09227 33983 ft 463 kts 310°
2026-05-04 15:42 39.41969 65.02857 33974 ft 464 kts 310°
2026-05-04 15:43 39.46158 64.96478 33979 ft 466 kts 310°
2026-05-04 15:43 39.50335 64.90104 33977 ft 464 kts 310°
2026-05-04 15:44 39.54485 64.83759 33968 ft 464 kts 310°
2026-05-04 15:44 39.58645 64.77385 33972 ft 463 kts 310°
2026-05-04 15:45 39.62801 64.71006 33971 ft 465 kts 310°
2026-05-04 15:45 39.66964 64.64600 33967 ft 464 kts 310°
2026-05-04 15:46 39.71119 64.58195 33961 ft 465 kts 310°
2026-05-04 15:46 39.74975 64.51524 33948 ft 464 kts 300°
2026-05-04 15:47 39.77320 64.43779 33956 ft 466 kts 284°
2026-05-04 15:47 39.78055 64.35458 33958 ft 466 kts 275°
2026-05-04 15:48 39.78449 64.27036 33979 ft 467 kts 274°
2026-05-04 15:48 39.79011 64.14483 33969 ft 466 kts 274°
2026-05-04 15:49 39.79375 64.06103 33962 ft 466 kts 274°
2026-05-04 15:49 39.79733 63.97680 33944 ft 466 kts 274°
2026-05-04 15:50 39.80080 63.89340 33934 ft 465 kts 274°
2026-05-04 15:50 39.80423 63.80951 33946 ft 465 kts 274°
2026-05-04 15:51 39.80757 63.72618 33949 ft 466 kts 274°
2026-05-04 15:51 39.81090 63.64181 33948 ft 465 kts 274°
2026-05-04 15:52 39.81412 63.55849 33936 ft 465 kts 274°
2026-05-04 15:52 39.81731 63.47459 33940 ft 465 kts 274°
2026-05-04 15:53 39.82042 63.39100 33941 ft 463 kts 274°
2026-05-04 15:53 39.82345 63.30799 33942 ft 463 kts 274°
2026-05-04 15:54 39.82648 63.22475 33943 ft 463 kts 274°
2026-05-04 15:54 39.82960 63.14103 33947 ft 463 kts 274°
2026-05-04 15:55 39.83265 63.05759 33939 ft 464 kts 274°
2026-05-04 15:55 39.83564 62.97386 33949 ft 464 kts 274°
2026-05-04 15:56 39.83855 62.89068 33944 ft 463 kts 274°
2026-05-04 15:56 39.84140 62.80734 33948 ft 463 kts 274°
2026-05-04 15:57 39.84414 62.72401 33943 ft 462 kts 274°
2026-05-04 15:57 39.84631 62.64106 33945 ft 462 kts 274°
2026-05-04 15:58 39.84841 62.55803 33942 ft 462 kts 274°
2026-05-04 15:58 39.85048 62.47448 33944 ft 461 kts 274°
2026-05-04 15:59 39.85247 62.39184 33950 ft 462 kts 274°
2026-05-04 15:59 39.85444 62.30850 33955 ft 462 kts 273°
2026-05-04 16:00 39.85634 62.22509 33947 ft 461 kts 273°
2026-05-04 16:00 39.85817 62.14217 33949 ft 461 kts 273°
2026-05-04 16:01 39.85995 62.05896 33947 ft 460 kts 273°
2026-05-04 16:01 39.86167 61.97576 33950 ft 461 kts 273°
2026-05-04 16:02 39.86332 61.89308 33950 ft 461 kts 273°
2026-05-04 16:03 39.86570 61.76838 33949 ft 460 kts 273°
2026-05-04 16:03 39.86721 61.68546 33952 ft 460 kts 273°
2026-05-04 16:04 39.86866 61.60261 33949 ft 458 kts 273°
2026-05-04 16:04 39.87071 61.47879 33946 ft 457 kts 273°
2026-05-04 16:05 39.87200 61.39671 33946 ft 456 kts 273°
2026-05-04 16:06 39.87479 61.27364 33952 ft 455 kts 273°
2026-05-04 16:07 39.87880 61.11002 33950 ft 454 kts 273°
2026-05-04 16:08 39.88251 60.94605 33933 ft 454 kts 273°
2026-05-04 16:09 39.88681 60.74110 33924 ft 453 kts 273°
2026-05-04 16:10 39.88996 60.57859 33930 ft 450 kts 273°
2026-05-04 16:11 39.89288 60.41657 33922 ft 449 kts 273°
2026-05-04 16:12 39.89631 60.17348 33933 ft 448 kts 272°
2026-05-04 16:13 39.89782 60.01208 33921 ft 447 kts 272°
2026-05-04 16:14 39.89911 59.85111 33922 ft 445 kts 272°
2026-05-04 16:16 39.90044 59.65053 33921 ft 444 kts 272°
2026-05-04 16:17 39.90140 59.45081 33912 ft 441 kts 272°
2026-05-04 16:18 39.90181 59.29197 33910 ft 441 kts 272°
2026-05-04 16:19 39.90173 59.09374 33902 ft 437 kts 272°
2026-05-04 16:20 39.90100 58.89698 33896 ft 435 kts 272°
2026-05-04 16:22 39.89993 58.70075 33891 ft 435 kts 271°
2026-05-04 16:23 39.89821 58.46532 33880 ft 435 kts 271°
2026-05-04 16:25 39.89602 58.23024 33870 ft 434 kts 271°
2026-05-04 16:26 39.89360 57.95732 33870 ft 432 kts 271°
2026-05-04 16:28 39.89166 57.76223 33867 ft 433 kts 271°
2026-05-04 16:29 39.88839 57.48921 33847 ft 432 kts 270°
2026-05-04 16:31 39.88568 57.29534 33853 ft 431 kts 269°
2026-05-04 16:32 39.88199 57.06251 33839 ft 429 kts 269°
2026-05-04 16:33 39.87928 56.90780 33843 ft 429 kts 269°
2026-05-04 16:34 39.87712 56.79180 33845 ft 429 kts 269°
2026-05-04 16:35 39.87244 56.55984 33836 ft 428 kts 269°
2026-05-04 16:36 39.86993 56.44392 33839 ft 428 kts 269°
2026-05-04 16:37 39.86731 56.32816 33855 ft 428 kts 268°
2026-05-04 16:38 39.86369 56.17408 33851 ft 428 kts 268°
2026-05-04 16:39 39.85898 55.98099 33835 ft 429 kts 268°
2026-05-04 16:40 39.85498 55.82637 33827 ft 430 kts 268°
2026-05-04 16:41 39.84969 55.63324 33819 ft 427 kts 268°
2026-05-04 16:43 39.84410 55.44088 33815 ft 427 kts 268°
2026-05-04 16:43 39.84056 55.32459 33824 ft 429 kts 267°
2026-05-04 16:45 39.83320 55.09352 33821 ft 427 kts 266°
2026-05-04 16:46 39.82744 54.90084 33844 ft 429 kts 267°
2026-05-04 16:47 39.82776 54.74643 33861 ft 432 kts 278°
2026-05-04 16:48 39.85878 54.59571 33864 ft 433 kts 282°
2026-05-04 16:49 39.89088 54.44466 33861 ft 433 kts 282°
2026-05-04 16:50 39.92236 54.29405 33856 ft 431 kts 281°
2026-05-04 16:51 39.94580 54.18114 33850 ft 431 kts 281°
2026-05-04 16:52 39.97690 54.03037 33842 ft 431 kts 281°
2026-05-04 16:53 40.00008 53.91726 33838 ft 432 kts 281°
2026-05-04 16:54 40.03088 53.76602 33824 ft 433 kts 281°
2026-05-04 16:55 40.07672 53.53891 33819 ft 435 kts 281°
2026-05-04 16:56 40.11481 53.34827 33815 ft 435 kts 279°
2026-05-04 16:57 40.13745 53.23410 33841 ft 434 kts 279°
2026-05-04 16:58 40.16745 53.08180 33842 ft 435 kts 279°
2026-05-04 17:00 40.21227 52.85214 33843 ft 436 kts 279°
2026-05-04 17:01 40.24943 52.65965 33848 ft 438 kts 279°
2026-05-04 17:02 40.27903 52.50521 33849 ft 438 kts 279°
2026-05-04 17:03 40.30109 52.38961 33852 ft 439 kts 279°
2026-05-04 17:03 40.32315 52.27327 33866 ft 438 kts 278°
2026-05-04 17:04 40.35230 52.11842 33856 ft 440 kts 278°
2026-05-04 17:05 40.38149 51.96215 33851 ft 442 kts 278°
2026-05-04 17:06 40.40319 51.84516 33856 ft 442 kts 278°
2026-05-04 17:07 40.42252 51.74035 33856 ft 444 kts 278°
2026-05-04 17:07 40.43927 51.64904 33855 ft 445 kts 278°
2026-05-04 17:08 40.46081 51.53097 33856 ft 444 kts 278°
2026-05-04 17:09 40.47589 51.45189 33857 ft 446 kts 280°
2026-05-04 17:09 40.49198 51.37381 33857 ft 447 kts 279°
2026-05-04 17:10 40.53203 51.17696 33862 ft 449 kts 279°
2026-05-04 17:11 40.54798 51.09783 33858 ft 447 kts 279°
2026-05-04 17:12 40.57155 50.98023 33858 ft 446 kts 279°
2026-05-04 17:13 40.61093 50.78210 33862 ft 448 kts 279°
2026-05-04 17:14 40.64222 50.62327 33865 ft 452 kts 279°
2026-05-04 17:15 40.66575 50.50300 33865 ft 453 kts 279°
2026-05-04 17:16 40.69681 50.34295 33880 ft 455 kts 279°
2026-05-04 17:17 40.72788 50.18135 33876 ft 455 kts 279°
2026-05-04 17:18 40.75877 50.01937 33867 ft 458 kts 279°
2026-05-04 17:19 40.78941 49.85740 33881 ft 457 kts 279°
2026-05-04 17:20 40.81998 49.69439 33862 ft 458 kts 279°
2026-05-04 17:20 40.84272 49.57224 33884 ft 458 kts 279°
2026-05-04 17:21 40.87287 49.40909 33874 ft 461 kts 279°
2026-05-04 17:22 40.88792 49.32688 33872 ft 460 kts 278°
2026-05-04 17:23 40.91584 49.16211 33885 ft 462 kts 278°
2026-05-04 17:24 40.93664 49.03858 33887 ft 458 kts 278°
2026-05-04 17:25 40.96411 48.87423 33884 ft 460 kts 278°
2026-05-04 17:26 40.99147 48.70904 33897 ft 462 kts 277°
2026-05-04 17:27 41.02545 48.50185 34021 ft 462 kts 277°
2026-05-04 17:28 41.05239 48.33573 34062 ft 462 kts 277°
2026-05-04 17:29 41.09221 48.08718 34069 ft 461 kts 276°
2026-05-04 17:31 41.12497 47.88005 34028 ft 462 kts 276°
2026-05-04 17:32 41.15751 47.67180 34031 ft 464 kts 276°
2026-05-04 17:33 41.18347 47.50373 34052 ft 465 kts 276°
2026-05-04 17:34 41.20921 47.33535 34031 ft 469 kts 276°
2026-05-04 17:35 41.24114 47.12415 33921 ft 469 kts 276°
2026-05-04 17:36 41.25388 47.03907 33872 ft 472 kts 276°
2026-05-04 17:36 41.26660 46.95364 33837 ft 469 kts 276°
2026-05-04 17:37 41.27916 46.86892 33843 ft 473 kts 275°
2026-05-04 17:37 41.29174 46.78355 33833 ft 472 kts 275°
2026-05-04 17:38 41.30407 46.69803 33834 ft 475 kts 275°
2026-05-04 17:38 41.31610 46.61220 33843 ft 473 kts 275°
2026-05-04 17:39 41.33396 46.48388 33846 ft 473 kts 275°
2026-05-04 17:39 41.34581 46.39825 33848 ft 473 kts 275°
2026-05-04 17:40 41.35768 46.31205 33838 ft 472 kts 275°
2026-05-04 17:40 41.36943 46.22613 33833 ft 473 kts 275°
2026-05-04 17:41 41.38114 46.14004 33835 ft 474 kts 275°
2026-05-04 17:41 41.39282 46.05376 33851 ft 474 kts 275°
2026-05-04 17:42 41.40434 45.96811 33848 ft 475 kts 275°
2026-05-04 17:42 41.41594 45.88138 33857 ft 474 kts 275°
2026-05-04 17:43 41.42739 45.79518 33857 ft 476 kts 275°
2026-05-04 17:43 41.43883 45.70860 33851 ft 477 kts 275°
2026-05-04 17:44 41.45020 45.62201 33850 ft 476 kts 275°
2026-05-04 17:44 41.46152 45.53525 33853 ft 478 kts 275°
2026-05-04 17:45 41.47280 45.44833 33856 ft 479 kts 275°
2026-05-04 17:45 41.48410 45.36067 33852 ft 479 kts 275°
2026-05-04 17:46 41.49178 45.27324 33852 ft 477 kts 271°
2026-05-04 17:46 41.49861 45.18570 33845 ft 477 kts 271°
2026-05-04 17:47 41.50559 45.09738 33842 ft 480 kts 271°
2026-05-04 17:47 41.51256 45.00934 33840 ft 480 kts 271°
2026-05-04 17:48 41.51953 44.92107 33836 ft 480 kts 271°
2026-05-04 17:48 41.52645 44.83291 33846 ft 479 kts 271°
2026-05-04 17:49 41.53332 44.74445 33852 ft 481 kts 271°
2026-05-04 17:49 41.54010 44.65659 33868 ft 482 kts 270°
2026-05-04 17:50 41.54689 44.56764 33876 ft 479 kts 270°
2026-05-04 17:50 41.55358 44.47908 33875 ft 482 kts 270°
2026-05-04 17:51 41.56021 44.39060 33871 ft 480 kts 270°
2026-05-04 17:51 41.56675 44.30215 33893 ft 482 kts 269°
2026-05-04 17:52 41.57195 44.21271 33927 ft 481 kts 264°
2026-05-04 17:52 41.57236 44.12416 33940 ft 480 kts 264°
2026-05-04 17:53 41.57256 44.03541 33932 ft 477 kts 263°
2026-05-04 17:53 41.57268 43.94637 33938 ft 480 kts 263°
2026-05-04 17:54 41.57276 43.85837 33958 ft 478 kts 263°
2026-05-04 17:54 41.57275 43.76966 33974 ft 481 kts 264°
2026-05-04 17:55 41.57270 43.68023 33953 ft 480 kts 264°
2026-05-04 17:55 41.57257 43.59164 33949 ft 485 kts 264°
2026-05-04 17:56 41.57238 43.50154 33942 ft 481 kts 263°
2026-05-04 17:56 41.57212 43.41272 33928 ft 482 kts 264°
2026-05-04 17:57 41.57180 43.32375 33930 ft 480 kts 263°
2026-05-04 17:57 41.57138 43.23436 33921 ft 484 kts 263°
2026-05-04 17:58 41.57092 43.14497 33922 ft 482 kts 263°
2026-05-04 17:58 41.57037 43.05570 33948 ft 483 kts 263°
2026-05-04 17:59 41.56977 42.96603 33936 ft 483 kts 264°
2026-05-04 18:00 41.56871 42.83167 33927 ft 488 kts 264°
2026-05-04 18:00 41.56794 42.74206 33942 ft 482 kts 264°
2026-05-04 18:01 41.56708 42.65272 33951 ft 486 kts 264°
2026-05-04 18:01 41.56616 42.56291 33915 ft 485 kts 264°
2026-05-04 18:02 41.56463 42.42778 33947 ft 489 kts 265°
2026-05-04 18:02 41.56353 42.33752 33951 ft 487 kts 264°
2026-05-04 18:03 41.56234 42.24685 33944 ft 488 kts 264°
2026-05-04 18:03 41.56111 42.15701 33943 ft 485 kts 264°
2026-05-04 18:04 41.55979 42.06708 33932 ft 489 kts 265°
2026-05-04 18:05 41.55769 41.93215 33907 ft 487 kts 265°
2026-05-04 18:05 41.55619 41.84154 33898 ft 487 kts 265°
2026-05-04 18:06 41.55382 41.70625 33879 ft 488 kts 265°
2026-05-04 18:06 41.55215 41.61626 33876 ft 489 kts 265°
2026-05-04 18:07 41.55040 41.52569 33882 ft 489 kts 265°
2026-05-04 18:07 41.54863 41.43527 33880 ft 491 kts 267°
2026-05-04 18:08 41.55342 41.34463 33881 ft 493 kts 272°
2026-05-04 18:08 41.55935 41.25412 33885 ft 493 kts 271°
2026-05-04 18:09 41.57020 41.07212 33884 ft 494 kts 271°
2026-05-04 18:10 41.57532 40.98130 33895 ft 493 kts 271°
2026-05-04 18:10 41.58034 40.88973 33893 ft 495 kts 272°
2026-05-04 18:11 41.58524 40.79871 33891 ft 493 kts 272°
2026-05-04 18:11 41.59006 40.70756 33885 ft 493 kts 271°
2026-05-04 18:12 41.59478 40.61668 33884 ft 494 kts 272°
2026-05-04 18:12 41.59944 40.52553 33886 ft 494 kts 272°
2026-05-04 18:13 41.60405 40.43403 33892 ft 495 kts 272°
2026-05-04 18:14 41.61081 40.29675 33886 ft 495 kts 271°
2026-05-04 18:14 41.61523 40.20523 33886 ft 494 kts 271°
2026-05-04 18:15 41.62384 40.02235 33888 ft 495 kts 271°
2026-05-04 18:16 41.62805 39.93060 33892 ft 495 kts 271°
2026-05-04 18:16 41.63218 39.83902 33890 ft 496 kts 271°
2026-05-04 18:17 41.63824 39.70158 33884 ft 497 kts 271°
2026-05-04 18:18 41.64415 39.56379 33885 ft 497 kts 271°
2026-05-04 18:18 41.64798 39.47210 33886 ft 498 kts 271°
2026-05-04 18:19 41.65362 39.33375 33881 ft 497 kts 271°
2026-05-04 18:19 41.65729 39.24139 33879 ft 498 kts 271°
2026-05-04 18:20 41.66085 39.14996 33878 ft 498 kts 271°
2026-05-04 18:20 41.66439 39.05729 33880 ft 499 kts 271°
2026-05-04 18:21 41.66784 38.96481 33879 ft 500 kts 271°
2026-05-04 18:21 41.67123 38.87217 33885 ft 501 kts 271°
2026-05-04 18:22 41.67454 38.77938 34158 ft 507 kts 271°
2026-05-04 18:22 41.67621 38.73216 34794 ft 500 kts 271°
2026-05-04 18:22 41.67780 38.68654 35427 ft 493 kts 271°
2026-05-04 18:23 41.67937 38.64092 35797 ft 494 kts 271°
2026-05-04 18:23 41.68093 38.59476 35877 ft 498 kts 271°
2026-05-04 18:23 41.68398 38.50322 35892 ft 496 kts 271°
2026-05-04 18:24 41.68697 38.41110 35896 ft 497 kts 271°
2026-05-04 18:24 41.68990 38.31884 35893 ft 495 kts 270°
2026-05-04 18:25 41.69273 38.22745 35898 ft 496 kts 270°
2026-05-04 18:25 41.69550 38.13539 35900 ft 496 kts 270°
2026-05-04 18:26 41.69820 38.04345 35901 ft 496 kts 270°
2026-05-04 18:26 41.70081 37.95186 35904 ft 496 kts 270°
2026-05-04 18:27 41.70337 37.85972 35905 ft 497 kts 271°
2026-05-04 18:27 41.70586 37.76724 35905 ft 498 kts 271°
2026-05-04 18:28 41.70827 37.67508 35905 ft 498 kts 271°
2026-05-04 18:28 41.71060 37.58310 35904 ft 498 kts 271°
2026-05-04 18:29 41.71285 37.49095 35907 ft 499 kts 271°
2026-05-04 18:29 41.71505 37.39804 35906 ft 500 kts 271°
2026-05-04 18:30 41.71819 37.25901 35904 ft 499 kts 270°
2026-05-04 18:31 41.72020 37.16637 35908 ft 499 kts 270°
2026-05-04 18:31 41.72212 37.07443 35905 ft 499 kts 270°
2026-05-04 18:32 41.72397 36.98168 35904 ft 500 kts 270°
2026-05-04 18:32 41.72576 36.88860 35911 ft 501 kts 271°
2026-05-04 18:33 41.72746 36.79609 35912 ft 501 kts 271°
2026-05-04 18:33 41.72910 36.70306 35911 ft 501 kts 271°
2026-05-04 18:34 41.73067 36.60981 35910 ft 503 kts 271°
2026-05-04 18:34 41.73216 36.51673 35914 ft 503 kts 271°
2026-05-04 18:35 41.73358 36.42325 35922 ft 503 kts 271°
2026-05-04 18:35 41.73492 36.32969 35921 ft 503 kts 270°
2026-05-04 18:36 41.73619 36.23662 35915 ft 504 kts 270°
2026-05-04 18:36 41.73738 36.14297 35921 ft 505 kts 270°
2026-05-04 18:37 41.73850 36.04982 35924 ft 504 kts 270°
2026-05-04 18:37 41.73954 35.95609 35930 ft 505 kts 270°
2026-05-04 18:38 41.74051 35.86169 35926 ft 505 kts 270°
2026-05-04 18:38 41.74141 35.76771 35920 ft 505 kts 270°
2026-05-04 18:39 41.74222 35.67416 35929 ft 506 kts 270°
2026-05-04 18:39 41.74296 35.58030 35933 ft 507 kts 271°
2026-05-04 18:40 41.74363 35.48580 35926 ft 508 kts 271°
2026-05-04 18:40 41.74421 35.39187 35930 ft 507 kts 271°
2026-05-04 18:41 41.74472 35.29786 35926 ft 505 kts 270°
2026-05-04 18:41 41.74515 35.20392 35931 ft 508 kts 270°
2026-05-04 18:42 41.74551 35.10991 35922 ft 507 kts 270°
2026-05-04 18:42 41.74579 35.01564 35911 ft 508 kts 270°
2026-05-04 18:43 41.74600 34.92136 35897 ft 509 kts 271°
2026-05-04 18:43 41.74612 34.82698 35899 ft 507 kts 270°
2026-05-04 18:44 41.74617 34.73300 35894 ft 508 kts 271°
2026-05-04 18:44 41.74615 34.63811 35884 ft 508 kts 271°
2026-05-04 18:45 41.74604 34.54416 35890 ft 510 kts 271°
2026-05-04 18:45 41.74584 34.44987 35887 ft 507 kts 271°
2026-05-04 18:46 41.74557 34.35583 35893 ft 508 kts 271°
2026-05-04 18:46 41.74522 34.26169 35874 ft 506 kts 270°
2026-05-04 18:47 41.74480 34.16763 35883 ft 510 kts 271°
2026-05-04 18:47 41.74430 34.07354 35884 ft 510 kts 271°
2026-05-04 18:48 41.74372 33.97917 35891 ft 509 kts 271°
2026-05-04 18:48 41.74306 33.88474 35896 ft 507 kts 271°
2026-05-04 18:49 41.74233 33.79067 35890 ft 506 kts 271°
2026-05-04 18:49 41.74152 33.69662 35873 ft 507 kts 271°
2026-05-04 18:50 41.74063 33.60223 35872 ft 507 kts 271°
2026-05-04 18:50 41.73967 33.50822 35886 ft 508 kts 272°
2026-05-04 18:51 41.73863 33.41440 35880 ft 506 kts 272°
2026-05-04 18:51 41.73753 33.32060 35863 ft 511 kts 271°
2026-05-04 18:52 41.73633 33.22662 35898 ft 506 kts 271°
2026-05-04 18:52 41.73506 33.13255 35900 ft 506 kts 271°
2026-05-04 18:53 41.73371 33.03867 35893 ft 503 kts 271°
2026-05-04 18:53 41.73258 32.94489 35864 ft 505 kts 272°
2026-05-04 18:54 41.73148 32.85091 35883 ft 506 kts 272°
2026-05-04 18:54 41.73030 32.75763 35881 ft 506 kts 272°
2026-05-04 18:55 41.72903 32.66432 35905 ft 503 kts 272°
2026-05-04 18:55 41.72697 32.52326 35909 ft 505 kts 272°
2026-05-04 18:56 41.72552 32.43001 35943 ft 504 kts 272°
2026-05-04 18:56 41.72398 32.33661 35915 ft 505 kts 272°
2026-05-04 18:57 41.71350 32.24356 35949 ft 510 kts 259°
2026-05-04 18:57 41.69698 32.15161 35911 ft 512 kts 259°
2026-05-04 18:58 41.68021 32.05917 35954 ft 510 kts 259°
2026-05-04 18:58 41.66342 31.96698 35913 ft 512 kts 259°
2026-05-04 18:59 41.64659 31.87503 35957 ft 510 kts 259°
2026-05-04 18:59 41.62977 31.78348 35954 ft 510 kts 259°
2026-05-04 19:00 41.61287 31.69199 35945 ft 510 kts 259°
2026-05-04 19:00 41.59586 31.60033 35954 ft 510 kts 259°
2026-05-04 19:01 41.57877 31.50866 35934 ft 508 kts 259°
2026-05-04 19:01 41.56167 31.41742 35952 ft 508 kts 259°
2026-05-04 19:02 41.55140 31.32538 35963 ft 501 kts 274°
2026-05-04 19:02 41.55615 31.23337 35263 ft 504 kts 279°
2026-05-04 19:03 41.55920 31.18696 34802 ft 502 kts 279°
2026-05-04 19:03 41.56220 31.14064 34378 ft 500 kts 280°
2026-05-04 19:03 41.56514 31.09495 33850 ft 498 kts 280°
2026-05-04 19:03 41.56805 31.04919 33269 ft 495 kts 281°
2026-05-04 19:04 41.57091 31.00382 32676 ft 493 kts 281°
2026-05-04 19:04 41.57373 30.95874 32115 ft 491 kts 281°
2026-05-04 19:04 41.57654 30.91347 31500 ft 489 kts 281°
2026-05-04 19:04 41.57933 30.86828 30880 ft 487 kts 281°
2026-05-04 19:05 41.58203 30.82403 30268 ft 485 kts 282°
2026-05-04 19:05 41.58477 30.77906 29594 ft 483 kts 282°
2026-05-04 19:05 41.58745 30.73474 28916 ft 482 kts 281°
2026-05-04 19:05 41.59011 30.69036 28241 ft 480 kts 282°
2026-05-04 19:06 41.59251 30.64630 27584 ft 479 kts 280°
2026-05-04 19:06 41.59417 30.60222 26916 ft 477 kts 280°
2026-05-04 19:06 41.59573 30.55866 26259 ft 475 kts 280°
2026-05-04 19:06 41.59729 30.51482 25599 ft 473 kts 280°
2026-05-04 19:07 41.59886 30.47085 24936 ft 470 kts 280°
2026-05-04 19:07 41.60039 30.42794 24307 ft 468 kts 280°
2026-05-04 19:07 41.60192 30.38488 23676 ft 465 kts 280°
2026-05-04 19:07 41.60542 30.34268 23122 ft 452 kts 289°
2026-05-04 19:08 41.61380 30.30358 22975 ft 426 kts 299°
2026-05-04 19:08 41.62625 30.26900 22969 ft 398 kts 309°
2026-05-04 19:08 41.64164 30.23986 22965 ft 380 kts 318°
2026-05-04 19:08 41.65893 30.21341 22974 ft 375 kts 320°
2026-05-04 19:09 41.67636 30.18743 22969 ft 375 kts 320°
2026-05-04 19:09 41.69390 30.16177 22729 ft 384 kts 319°
2026-05-04 19:09 41.70998 30.13220 22105 ft 396 kts 308°
2026-05-04 19:09 41.72197 30.09903 21485 ft 406 kts 297°
2026-05-04 19:10 41.72957 30.06254 20865 ft 415 kts 287°
2026-05-04 19:10 41.73213 30.02373 20240 ft 424 kts 275°
2026-05-04 19:10 41.72913 29.98418 19603 ft 431 kts 263°
2026-05-04 19:10 41.72053 29.94599 18979 ft 437 kts 251°
2026-05-04 19:11 41.70629 29.91005 18351 ft 440 kts 238°
2026-05-04 19:11 41.68714 29.87848 17729 ft 442 kts 227°
2026-05-04 19:11 41.66628 29.84824 17109 ft 438 kts 234°
2026-05-04 19:11 41.64968 29.81491 16491 ft 433 kts 245°
2026-05-04 19:12 41.63768 29.77849 15872 ft 426 kts 256°
2026-05-04 19:12 41.62497 29.70264 14653 ft 417 kts 265°
2026-05-04 19:12 41.62075 29.66448 14033 ft 414 kts 266°
2026-05-04 19:13 41.61487 29.62721 13453 ft 414 kts 257°
2026-05-04 19:13 41.60385 29.59180 12954 ft 413 kts 245°
2026-05-04 19:13 41.58827 29.56004 12455 ft 411 kts 234°
2026-05-04 19:13 41.56897 29.53202 11965 ft 408 kts 227°
2026-05-04 19:14 41.54881 29.50593 11478 ft 404 kts 225°
2026-05-04 19:14 41.52852 29.48069 10992 ft 400 kts 225°
2026-05-04 19:14 41.50796 29.45581 10503 ft 396 kts 224°
2026-05-04 19:14 41.48766 29.43174 10063 ft 390 kts 224°
2026-05-04 19:15 41.46762 29.40831 9966 ft 375 kts 224°
2026-05-04 19:15 41.44856 29.38621 9962 ft 358 kts 224°
2026-05-04 19:15 41.43008 29.36519 9958 ft 342 kts 221°
2026-05-04 19:15 41.41130 29.34666 9960 ft 328 kts 217°
2026-05-04 19:16 41.39296 29.32911 9964 ft 322 kts 218°
2026-05-04 19:16 41.37494 29.31182 9961 ft 321 kts 216°
2026-05-04 19:16 41.35430 29.29962 9962 ft 325 kts 190°
2026-05-04 19:16 41.33206 29.29645 9976 ft 324 kts 180°
2026-05-04 19:17 41.30954 29.29602 9972 ft 321 kts 178°
2026-05-04 19:17 41.28719 29.29606 9964 ft 321 kts 178°
2026-05-04 19:17 41.26474 29.29611 9970 ft 324 kts 178°
2026-05-04 19:17 41.24242 29.29791 9966 ft 319 kts 163°
2026-05-04 19:18 41.22259 29.30966 9964 ft 309 kts 138°
2026-05-04 19:18 41.20665 29.32847 9966 ft 305 kts 128°
2026-05-04 19:18 41.19210 29.34880 9969 ft 302 kts 126°
2026-05-04 19:18 41.17804 29.36923 9975 ft 302 kts 125°
2026-05-04 19:19 41.16398 29.38942 9959 ft 302 kts 131°
2026-05-04 19:19 41.14716 29.40645 9972 ft 308 kts 140°
2026-05-04 19:19 41.12911 29.42197 9968 ft 310 kts 142°
2026-05-04 19:19 41.11080 29.43742 9967 ft 307 kts 142°
2026-05-04 19:20 41.09312 29.45243 9966 ft 309 kts 142°
2026-05-04 19:20 41.07444 29.46665 9964 ft 312 kts 153°
2026-05-04 19:20 41.05388 29.47650 9964 ft 314 kts 158°
2026-05-04 19:20 41.03291 29.48530 9964 ft 316 kts 158°
2026-05-04 19:21 41.01213 29.49397 9971 ft 314 kts 159°
2026-05-04 19:21 40.99141 29.50268 9962 ft 314 kts 160°
2026-05-04 19:21 40.96962 29.50768 9961 ft 316 kts 173°
2026-05-04 19:21 40.94750 29.50941 9967 ft 319 kts 175°
2026-05-04 19:22 40.92582 29.50636 9968 ft 318 kts 198°
2026-05-04 19:22 40.90651 29.49223 9949 ft 316 kts 225°
2026-05-04 19:22 40.89334 29.46966 9953 ft 307 kts 250°
2026-05-04 19:22 40.88794 29.44322 9950 ft 297 kts 272°
2026-05-04 19:23 40.88778 29.41608 9329 ft 297 kts 279°
2026-05-04 19:23 40.88909 29.38895 8563 ft 300 kts 281°
2026-05-04 19:23 40.89070 29.36191 7798 ft 302 kts 281°
2026-05-04 19:23 40.89239 29.33401 7116 ft 303 kts 281°
2026-05-04 19:24 40.89407 29.30620 6608 ft 305 kts 281°
2026-05-04 19:24 40.89569 29.27894 6327 ft 299 kts 281°
2026-05-04 19:24 40.89730 29.25178 6064 ft 292 kts 281°
2026-05-04 19:24 40.89885 29.22555 5810 ft 286 kts 281°
2026-05-04 19:25 40.90039 29.19963 5553 ft 280 kts 281°
2026-05-04 19:25 40.90190 29.17406 5296 ft 275 kts 281°
2026-05-04 19:25 40.90337 29.14922 5048 ft 270 kts 281°
2026-05-04 19:25 40.90476 29.12516 4981 ft 258 kts 281°
2026-05-04 19:26 40.90610 29.10195 4975 ft 246 kts 282°
2026-05-04 19:26 40.90741 29.07977 4976 ft 241 kts 282°
2026-05-04 19:26 40.90870 29.05790 4977 ft 241 kts 282°
2026-05-04 19:26 40.91003 29.03539 4982 ft 251 kts 282°
2026-05-04 19:27 40.91172 29.01212 4976 ft 259 kts 288°
2026-05-04 19:27 40.91620 28.98905 4979 ft 257 kts 294°
2026-05-04 19:27 40.92145 28.96678 4978 ft 254 kts 294°
2026-05-04 19:27 40.92675 28.94451 4980 ft 255 kts 294°
2026-05-04 19:28 40.93202 28.92214 4978 ft 255 kts 294°
2026-05-04 19:28 40.93722 28.89992 4974 ft 251 kts 294°
2026-05-04 19:28 40.94224 28.87831 4973 ft 237 kts 295°
2026-05-04 19:28 40.94693 28.85814 4972 ft 223 kts 295°
2026-05-04 19:29 40.95147 28.83888 4985 ft 228 kts 295°
2026-05-04 19:29 40.95625 28.81858 4981 ft 233 kts 295°
2026-05-04 19:29 40.96109 28.79779 4979 ft 234 kts 295°
2026-05-04 19:29 40.96583 28.77736 4978 ft 235 kts 295°
2026-05-04 19:30 40.97104 28.75701 4971 ft 230 kts 305°
2026-05-04 19:30 40.98086 28.74204 4966 ft 206 kts 332°
2026-05-04 19:30 40.99368 28.73491 4975 ft 196 kts 349°
2026-05-04 19:30 41.00673 28.73282 4989 ft 187 kts 358°
2026-05-04 19:31 41.01984 28.73223 4978 ft 184 kts 360°
2026-05-04 19:31 41.03274 28.73196 4837 ft 188 kts
2026-05-04 19:31 41.04568 28.73178 4592 ft 186 kts
2026-05-04 19:31 41.05865 28.73162 4345 ft 184 kts
2026-05-04 19:32 41.07136 28.73143 4102 ft 182 kts
2026-05-04 19:32 41.08397 28.73121 3860 ft 180 kts
2026-05-04 19:32 41.09641 28.73099 3620 ft 179 kts 360°
2026-05-04 19:32 41.10884 28.73076 3387 ft 177 kts 360°
2026-05-04 19:33 41.12114 28.73052 3158 ft 176 kts 360°
2026-05-04 19:33 41.13325 28.73029 2928 ft 174 kts 359°
2026-05-04 19:33 41.14528 28.73006 2690 ft 165 kts 359°
2026-05-04 19:33 41.15612 28.72984 2490 ft 151 kts 359°
2026-05-04 19:34 41.16630 28.72964 2281 ft 140 kts 359°
2026-05-04 19:34 41.17562 28.72946 2097 ft 128 kts 359°
2026-05-04 19:34 41.18433 28.72930 1934 ft 126 kts 359°
2026-05-04 19:34 41.19311 28.72911 1751 ft 125 kts 359°
2026-05-04 19:35 41.20186 28.72895 1580 ft 126 kts 359°
2026-05-04 19:35 41.21073 28.72877 1412 ft 128 kts 358°
2026-05-04 19:35 41.21959 28.72863 1206 ft 129 kts 359°
2026-05-04 19:35 41.22860 28.72872 992 ft 130 kts 358°
2026-05-04 19:36 41.23777 28.72852 832 ft 132 kts 356°
2026-05-04 19:36 41.24709 28.72812 673 ft 133 kts 357°
2026-05-04 19:36 41.25639 28.72802 504 ft 136 kts 357°
2026-05-04 19:36 41.26577 28.72782 341 ft 130 kts 356°
2026-05-04 19:37 41.27336 28.72752 341 ft 86 kts
2026-05-04 19:37 41.27782 28.72745 341 ft 36 kts
2026-05-04 19:37 41.28003 28.72806 341 ft 20 kts 23°
2026-05-04 19:37 41.28087 28.72862 341 ft 9 kts 28°
2026-05-04 19:38 41.28125 28.72890 341 ft 3 kts 43°
2026-05-04 19:38 41.28135 28.72920 341 ft 3 kts 87°
2026-05-04 19:38 41.28127 28.72943 341 ft 2 kts 140°
2026-05-04 19:38 41.28109 28.72953 341 ft 4 kts 161°
2026-05-04 19:39 41.28056 28.72964 341 ft 10 kts 178°
2026-05-04 19:39 41.27973 28.72965 341 ft 12 kts 179°
2026-05-04 19:39 41.27875 28.72969 341 ft 16 kts 179°
2026-05-04 19:39 41.27743 28.72972 340 ft 20 kts 179°
2026-05-04 19:40 41.27602 28.72975 340 ft 19 kts 179°
2026-05-04 19:40 41.27471 28.72976 341 ft 18 kts 179°
2026-05-04 19:40 41.27345 28.72978 341 ft 17 kts 179°
2026-05-04 19:40 41.27225 28.72981 340 ft 16 kts 179°
2026-05-04 19:41 41.27108 28.72984 341 ft 16 kts 179°
2026-05-04 19:41 41.26999 28.72987 341 ft 15 kts 179°
2026-05-04 19:41 41.26894 28.72997 341 ft 14 kts 168°
2026-05-04 19:41 41.26862 28.73068 340 ft 8 kts 108°
2026-05-04 19:42 41.26854 28.73142 340 ft 8 kts 89°
2026-05-04 19:42 41.26856 28.73229 341 ft 10 kts 88°
2026-05-04 19:42 41.26859 28.73342 340 ft 13 kts 89°
2026-05-04 19:42 41.26860 28.73460 340 ft 5 kts 91°
2026-05-04 19:43 41.26856 28.73505 340 ft 4 kts 125°
2026-05-04 19:43 41.26834 28.73528 340 ft 4 kts 160°
2026-05-04 19:43 41.26802 28.73533 340 ft 5 kts 178°
2026-05-04 19:43 41.26781 28.73533 340 ft 1 kts 179°
2026-05-04 19:44 41.26775 28.73534 340 ft 0 kts 179°